DLH205 KLAX-CYYC

Flight info

Callsign DLH205
Flight time N/A
Altitude 38000
Route LADYJ4 CSTRO DCT HZN DCT ANTAK Q953 IGVEP IGVEP7
Aircraft A388/J-SADE2E3FGHIJ3J4J5M1RWXY/LB1D1

Departure

Time N/A
Airport Los Angeles International Airport (KLAX)

Arrival

Time 2026-04-29 01:25
Airport Calgary International Airport (CYYC)
Time Latitude Longitude Altitude Speed Heading
2026-04-29 00:25 44.44160 -117.19558 38129 ft 498 kts
2026-04-29 00:26 44.47549 -117.18714 38128 ft 498 kts
2026-04-29 00:26 44.54357 -117.17017 38128 ft 498 kts
2026-04-29 00:27 44.61141 -117.15323 38127 ft 498 kts
2026-04-29 00:27 44.67915 -117.13627 38126 ft 497 kts
2026-04-29 00:28 44.74719 -117.11919 38126 ft 498 kts
2026-04-29 00:28 44.81501 -117.10214 38127 ft 498 kts
2026-04-29 00:29 44.88275 -117.08508 38129 ft 498 kts
2026-04-29 00:29 44.95085 -117.06786 38133 ft 502 kts
2026-04-29 00:30 45.01947 -117.05048 38138 ft 502 kts
2026-04-29 00:30 45.08786 -117.03310 38146 ft 502 kts
2026-04-29 00:31 45.15627 -117.01568 38159 ft 503 kts
2026-04-29 00:31 45.22503 -116.99814 38158 ft 503 kts
2026-04-29 00:32 45.29352 -116.98061 38158 ft 504 kts
2026-04-29 00:32 45.36206 -116.96303 38157 ft 504 kts
2026-04-29 00:33 45.43057 -116.94541 38157 ft 504 kts
2026-04-29 00:33 45.49937 -116.92768 38155 ft 504 kts
2026-04-29 00:34 45.56798 -116.90994 38153 ft 504 kts
2026-04-29 00:34 45.63654 -116.89219 38154 ft 504 kts
2026-04-29 00:35 45.70537 -116.87432 38154 ft 504 kts
2026-04-29 00:35 45.77391 -116.85647 38154 ft 504 kts
2026-04-29 00:36 45.84257 -116.83856 38154 ft 505 kts
2026-04-29 00:36 45.91123 -116.82059 38153 ft 505 kts
2026-04-29 00:37 45.98013 -116.80251 38152 ft 505 kts
2026-04-29 00:37 46.04888 -116.78441 38153 ft 506 kts
2026-04-29 00:38 46.11770 -116.76629 38156 ft 506 kts
2026-04-29 00:38 46.18679 -116.74804 38153 ft 507 kts
2026-04-29 00:39 46.25574 -116.72975 38150 ft 507 kts
2026-04-29 00:39 46.32474 -116.71143 38149 ft 507 kts
2026-04-29 00:40 46.39381 -116.69303 38148 ft 507 kts
2026-04-29 00:40 46.46307 -116.67454 38148 ft 507 kts
2026-04-29 00:41 46.53211 -116.65605 38148 ft 507 kts
2026-04-29 00:41 46.60113 -116.63753 38147 ft 508 kts
2026-04-29 00:42 46.67038 -116.61889 38147 ft 508 kts
2026-04-29 00:42 46.73940 -116.60026 38147 ft 508 kts
2026-04-29 00:43 46.80845 -116.58159 38146 ft 508 kts
2026-04-29 00:43 46.87749 -116.56286 38145 ft 508 kts
2026-04-29 00:44 46.94681 -116.54401 38145 ft 509 kts
2026-04-29 00:44 47.01603 -116.52513 38145 ft 509 kts
2026-04-29 00:45 47.08524 -116.50621 38144 ft 509 kts
2026-04-29 00:45 47.15480 -116.48715 38151 ft 509 kts
2026-04-29 00:46 47.22408 -116.46811 38151 ft 510 kts
2026-04-29 00:46 47.29340 -116.44901 38151 ft 510 kts
2026-04-29 00:47 47.36278 -116.42983 38149 ft 511 kts
2026-04-29 00:47 47.43245 -116.41053 38143 ft 511 kts
2026-04-29 00:48 47.50191 -116.39124 38135 ft 511 kts
2026-04-29 00:48 47.57149 -116.37185 38130 ft 512 kts
2026-04-29 00:49 47.64136 -116.35234 38130 ft 512 kts
2026-04-29 00:49 47.71109 -116.33281 38126 ft 513 kts
2026-04-29 00:50 47.78074 -116.31326 38125 ft 513 kts
2026-04-29 00:50 47.85039 -116.29365 38124 ft 513 kts
2026-04-29 00:51 47.92043 -116.27387 38121 ft 514 kts
2026-04-29 00:51 47.99021 -116.25411 38117 ft 514 kts
2026-04-29 00:52 48.06000 -116.23429 38115 ft 514 kts
2026-04-29 00:52 48.13010 -116.21434 38121 ft 514 kts
2026-04-29 00:53 48.19993 -116.19440 38120 ft 514 kts
2026-04-29 00:53 48.26976 -116.17441 38120 ft 514 kts
2026-04-29 00:54 48.33956 -116.15437 38120 ft 514 kts
2026-04-29 00:54 48.40961 -116.13420 38119 ft 514 kts
2026-04-29 00:55 48.47943 -116.11404 38119 ft 514 kts
2026-04-29 00:55 48.54923 -116.09384 38109 ft 514 kts
2026-04-29 00:56 48.61931 -116.07349 38095 ft 514 kts
2026-04-29 00:56 48.68909 -116.05318 38087 ft 514 kts
2026-04-29 00:57 48.75888 -116.03280 38085 ft 514 kts
2026-04-29 00:57 48.82867 -116.01237 38085 ft 514 kts
2026-04-29 00:58 48.89875 -115.99178 38084 ft 514 kts
2026-04-29 00:58 48.96845 -115.97126 38082 ft 514 kts
2026-04-29 00:59 49.03815 -115.95068 38081 ft 514 kts
2026-04-29 00:59 49.10817 -115.92994 38081 ft 514 kts
2026-04-29 01:00 49.17792 -115.90923 38078 ft 514 kts
2026-04-29 01:00 49.24772 -115.88844 38066 ft 514 kts
2026-04-29 01:01 49.31749 -115.86742 38051 ft 514 kts 10°
2026-04-29 01:01 49.38384 -115.82632 38066 ft 520 kts 24°
2026-04-29 01:02 49.44693 -115.77290 38057 ft 522 kts 26°
2026-04-29 01:02 49.51005 -115.71879 37808 ft 527 kts 26°
2026-04-29 01:02 49.54189 -115.69143 37360 ft 529 kts 26°
2026-04-29 01:03 49.57409 -115.66370 36918 ft 529 kts 26°
2026-04-29 01:03 49.60594 -115.63621 36473 ft 528 kts 26°
2026-04-29 01:03 49.63773 -115.60878 36027 ft 526 kts 26°
2026-04-29 01:03 49.66940 -115.58139 35580 ft 525 kts 26°
2026-04-29 01:04 49.70098 -115.55404 35133 ft 523 kts 26°
2026-04-29 01:04 49.73255 -115.52667 34661 ft 527 kts 26°
2026-04-29 01:04 49.76443 -115.49897 33974 ft 529 kts 26°
2026-04-29 01:04 49.79648 -115.47108 33221 ft 528 kts 26°
2026-04-29 01:05 49.82824 -115.44341 32473 ft 526 kts 26°
2026-04-29 01:05 49.85980 -115.41585 31725 ft 524 kts 26°
2026-04-29 01:05 49.89126 -115.38837 30978 ft 521 kts 25°
2026-04-29 01:05 49.92255 -115.36097 30230 ft 519 kts 25°
2026-04-29 01:06 49.95376 -115.33363 29476 ft 517 kts 26°
2026-04-29 01:06 49.98469 -115.30648 28721 ft 512 kts 26°
2026-04-29 01:06 50.01550 -115.27939 27955 ft 504 kts 26°
2026-04-29 01:06 50.04560 -115.25286 27193 ft 498 kts 26°
2026-04-29 01:07 50.07541 -115.22660 26433 ft 492 kts 26°
2026-04-29 01:07 50.10483 -115.20063 25674 ft 486 kts 26°
2026-04-29 01:07 50.13392 -115.17484 24970 ft 481 kts 26°
2026-04-29 01:07 50.16270 -115.14927 24352 ft 477 kts 26°
2026-04-29 01:08 50.19121 -115.12391 23729 ft 473 kts 27°
2026-04-29 01:08 50.21972 -115.09850 23101 ft 470 kts 27°
2026-04-29 01:08 50.24784 -115.07340 22477 ft 466 kts 27°
2026-04-29 01:08 50.27568 -115.04852 21851 ft 459 kts 27°
2026-04-29 01:09 50.30291 -115.02414 21219 ft 449 kts 27°
2026-04-29 01:09 50.32962 -115.00021 20585 ft 440 kts 27°
2026-04-29 01:09 50.35575 -114.97676 19954 ft 432 kts 27°
2026-04-29 01:09 50.38148 -114.95366 19322 ft 424 kts 27°
2026-04-29 01:10 50.40690 -114.93080 18689 ft 417 kts 27°
2026-04-29 01:10 50.43165 -114.90851 18169 ft 408 kts 27°
2026-04-29 01:10 50.45569 -114.88682 17602 ft 387 kts 27°
2026-04-29 01:10 50.47758 -114.86698 17014 ft 352 kts 27°
2026-04-29 01:11 50.49848 -114.84816 16574 ft 346 kts 27°
2026-04-29 01:11 50.51910 -114.82955 16071 ft 343 kts 27°
2026-04-29 01:11 50.53951 -114.81108 15571 ft 339 kts 27°
2026-04-29 01:11 50.55989 -114.79262 15080 ft 335 kts 27°
2026-04-29 01:12 50.57966 -114.77466 14812 ft 325 kts 27°
2026-04-29 01:12 50.59886 -114.75722 14545 ft 315 kts 27°
2026-04-29 01:12 50.61747 -114.74029 14277 ft 306 kts 27°
2026-04-29 01:12 50.63561 -114.72380 14026 ft 301 kts 27°
2026-04-29 01:13 50.65357 -114.70747 14000 ft 300 kts 27°
2026-04-29 01:13 50.67159 -114.69106 14004 ft 301 kts 27°
2026-04-29 01:13 50.68979 -114.67447 14000 ft 301 kts 27°
2026-04-29 01:13 50.70673 -114.65525 13995 ft 303 kts 39°
2026-04-29 01:14 50.72211 -114.63277 14004 ft 299 kts 40°
2026-04-29 01:14 50.73647 -114.61055 13970 ft 282 kts 41°
2026-04-29 01:14 50.74980 -114.58918 13856 ft 270 kts 42°
2026-04-29 01:14 50.76288 -114.56806 13379 ft 272 kts 42°
2026-04-29 01:15 50.77598 -114.54676 12937 ft 272 kts 43°
2026-04-29 01:15 50.78919 -114.52522 12523 ft 271 kts 43°
2026-04-29 01:15 50.80206 -114.50413 12151 ft 268 kts 43°
2026-04-29 01:15 50.81515 -114.48357 11774 ft 265 kts 40°
2026-04-29 01:16 50.82836 -114.46364 11396 ft 263 kts 41°
2026-04-29 01:16 50.84144 -114.44374 11019 ft 262 kts 41°
2026-04-29 01:16 50.85444 -114.42397 10642 ft 260 kts 41°
2026-04-29 01:16 50.86734 -114.40433 10267 ft 258 kts 41°
2026-04-29 01:17 50.88028 -114.38463 9887 ft 257 kts 41°
2026-04-29 01:17 50.89306 -114.36517 9511 ft 255 kts 42°
2026-04-29 01:17 50.90544 -114.34528 9122 ft 254 kts 52°
2026-04-29 01:17 50.91383 -114.32110 8776 ft 251 kts 71°
2026-04-29 01:18 50.91634 -114.29429 8518 ft 243 kts 90°
2026-04-29 01:18 50.91491 -114.24134 7958 ft 241 kts 91°
2026-04-29 01:18 50.91431 -114.21494 7629 ft 238 kts 91°
2026-04-29 01:19 50.91371 -114.18891 7303 ft 237 kts 91°
2026-04-29 01:19 50.91311 -114.16303 6979 ft 236 kts 91°
2026-04-29 01:19 50.91250 -114.13723 6653 ft 234 kts 91°
2026-04-29 01:19 50.91189 -114.11164 6329 ft 233 kts 91°
2026-04-29 01:20 50.91128 -114.08618 6026 ft 231 kts 91°
2026-04-29 01:20 50.91364 -114.06173 6057 ft 227 kts 64°
2026-04-29 01:20 50.92386 -114.04398 5978 ft 208 kts 35°
2026-04-29 01:20 50.93511 -114.03173 5955 ft 193 kts 34°
2026-04-29 01:21 50.94694 -114.02235 5911 ft 188 kts 12°
2026-04-29 01:21 50.95949 -114.02114 5723 ft 181 kts 359°
2026-04-29 01:21 50.97157 -114.02147 5481 ft 168 kts 360°
2026-04-29 01:21 50.98272 -114.02148 5217 ft 157 kts
2026-04-29 01:22 50.99354 -114.02146 5024 ft 156 kts
2026-04-29 01:22 51.00439 -114.02145 4865 ft 152 kts
2026-04-29 01:22 51.01487 -114.02142 4779 ft 150 kts
2026-04-29 01:22 51.02525 -114.02141 4809 ft 150 kts
2026-04-29 01:23 51.03541 -114.02143 4770 ft 146 kts
2026-04-29 01:23 51.04556 -114.02140 4579 ft 146 kts
2026-04-29 01:23 51.05564 -114.02139 4390 ft 145 kts
2026-04-29 01:23 51.06567 -114.02138 4197 ft 145 kts
2026-04-29 01:24 51.07575 -114.02137 4006 ft 144 kts
2026-04-29 01:24 51.08572 -114.02136 3816 ft 144 kts
2026-04-29 01:24 51.09568 -114.02135 3640 ft 144 kts
2026-04-29 01:24 51.10538 -114.02133 3576 ft 133 kts
2026-04-29 01:25 51.11325 -114.02132 3573 ft 90 kts
2026-04-29 01:25 51.11788 -114.02133 3573 ft 49 kts 360°
2026-04-29 01:25 51.12086 -114.02132 3573 ft 38 kts
2026-04-29 01:25 51.12267 -114.02094 3573 ft 20 kts 21°
2026-04-29 01:26 51.12363 -114.02013 3573 ft 11 kts 30°
2026-04-29 01:26 51.12403 -114.01976 3573 ft 3 kts 30°
2026-04-29 01:26 51.12427 -114.01954 3573 ft 5 kts 30°
2026-04-29 01:26 51.12456 -114.01927 3573 ft 5 kts 30°
2026-04-29 01:27 51.12484 -114.01901 3573 ft 3 kts 30°
2026-04-29 01:27 51.12489 -114.01896 3573 ft 0 kts 30°
2026-04-29 01:27 51.12490 -114.01895 3573 ft 0 kts 30°
2026-04-29 01:27 51.12492 -114.01894 3573 ft 0 kts 30°
2026-04-29 01:28 51.12500 -114.01886 3573 ft 4 kts 30°